Idabel, OK

11:41 AM CDT on April 25, 2018 (GMT -0500)
Idabel

Weather History for K4O4 - April, 2014

Change the Weather History Date:

Friday, April 25, 2014

  Actual Average (KPRX) Record (KPRX)
Temperature  
Mean Temperature 61 °F -  
Max Temperature 80 °F 73 °F 84 °F (2012)
Min Temperature 42 °F 54 °F 39 °F (2013)
Degree Days  
Heating Degree Days 4    
Growing Degree Days 11 (Base 50)    
Moisture  
Dew Point 40 °F    
Average Humidity 49    
Maximum Humidity 100    
Minimum Humidity 17    
Precipitation  
Precipitation 0.00 in - - ()
Sea Level Pressure  
Sea Level Pressure 29.98 in    
Wind  
Wind Speed 4 mph (SE)    
Max Wind Speed 10 mph    
Max Gust Speed -    
Visibility 10 miles    
Events      
Averages and records for this station are not official NWS values.
T = Trace of Precipitation, MM = Missing Value Source: NWS Daily Summary

Daily Weather History Graph

Daily Weather History Graph

Search for Another Location

Airport or City:

Astronomy

Apr. 25, 2014 Rise Set
Actual Time 6:36 AM CDT 7:58 PM CDT
Civil Twilight 6:10 AM CDT 8:24 PM CDT
Nautical Twilight 5:39 AM CDT 8:56 PM CDT
Astronomical Twilight 5:06 AM CDT 9:29 PM CDT
Moon 4:14 AM CDT 4:31 PM CDT
Length of Visible Light 14h 14m
Length of Day
13h 21m
Waning Crescent, 15% of the Moon is Illuminated
Apr 25
Waning Crescent
Apr 29
New
May 6
First Quarter
May 14
Full
May 21
Last Quarter

Hourly Weather History & Observations

Time (CDT) Temp. Windchill Dew Point Humidity Pressure Visibility Wind Dir Wind Speed Gust Speed Precip Events Conditions
12:01 AM 57.2 °F - 44.6 °F 63% 29.94 in 10.0 mi Calm Calm - N/A   Clear
12:21 AM 55.4 °F - 46.4 °F 72% 29.94 in 10.0 mi NW 4.6 mph - N/A   Clear
12:41 AM 53.6 °F - 46.4 °F 77% 29.95 in 10.0 mi Calm Calm - N/A   Clear
1:01 AM 51.8 °F - 44.6 °F 76% 29.95 in 10.0 mi Calm Calm - N/A   Clear
1:21 AM 51.8 °F - 44.6 °F 76% 29.95 in 10.0 mi Calm Calm - N/A   Clear
1:41 AM 51.8 °F - 44.6 °F 76% 29.96 in 10.0 mi NW 5.8 mph - N/A   Clear
2:01 AM 53.6 °F - 42.8 °F 67% 29.96 in 10.0 mi NW 6.9 mph - N/A   Clear
2:21 AM 53.6 °F - 42.8 °F 67% 29.95 in 10.0 mi North 5.8 mph - N/A   Clear
2:41 AM 53.6 °F - 42.8 °F 67% 29.95 in 10.0 mi North 5.8 mph - N/A   Clear
3:01 AM 51.8 °F - 44.6 °F 76% 29.95 in 10.0 mi North 4.6 mph - N/A   Clear
3:21 AM 51.8 °F - 44.6 °F 76% 29.96 in 10.0 mi North 3.5 mph - N/A   Clear
3:41 AM 48.2 °F - 42.8 °F 82% 29.96 in 10.0 mi North 3.5 mph - N/A   Clear
4:01 AM 48.2 °F - 42.8 °F 82% 29.97 in 10.0 mi Calm Calm - N/A   Clear
4:21 AM 46.4 °F 45.2 °F 42.8 °F 87% 29.97 in 10.0 mi North 3.5 mph - N/A   Clear
4:41 AM 44.6 °F - 42.8 °F 93% 29.98 in 10.0 mi Calm Calm - N/A   Clear
5:01 AM 44.6 °F - 42.8 °F 93% 29.98 in 10.0 mi Calm Calm - N/A   Clear
5:21 AM 44.6 °F - 42.8 °F 93% 29.98 in 10.0 mi Calm Calm - N/A   Clear
5:41 AM 44.6 °F - 42.8 °F 93% 29.98 in 10.0 mi Calm Calm - N/A   Clear
6:01 AM 44.6 °F 42.2 °F 42.8 °F 93% 29.99 in 10.0 mi East 4.6 mph - N/A   Clear
6:21 AM 44.6 °F - 41.0 °F 87% 29.99 in 10.0 mi Calm Calm - N/A   Clear
6:41 AM 42.8 °F - 41.0 °F 93% 30.01 in 10.0 mi Calm Calm - N/A   Clear
7:01 AM 42.8 °F - 39.2 °F 87% 30.01 in 10.0 mi Calm Calm - N/A   Clear
7:21 AM 42.8 °F 41.1 °F 41.0 °F 93% 30.02 in 10.0 mi North 3.5 mph - N/A   Clear
7:41 AM 44.6 °F - 44.6 °F 100% 30.03 in 10.0 mi Calm Calm - N/A   Clear
8:01 AM 48.2 °F - 46.4 °F 93% 30.03 in 10.0 mi Calm Calm - N/A   Clear
8:21 AM 51.8 °F - 50.0 °F 94% 30.04 in 10.0 mi Calm Calm - N/A   Clear
8:41 AM 53.6 °F - 50.0 °F 88% 30.05 in 10.0 mi Calm Calm - N/A   Clear
9:21 AM 62.6 °F - 48.2 °F 59% 30.06 in 10.0 mi Calm Calm - N/A   Clear
9:41 AM 66.2 °F - 48.2 °F 52% 30.06 in 10.0 mi Calm Calm - N/A   Clear
10:01 AM 68.0 °F - 42.8 °F 40% 30.06 in 10.0 mi East 4.6 mph - N/A   Clear
10:21 AM 71.6 °F - 37.4 °F 29% 30.07 in 10.0 mi ENE 5.8 mph - N/A   Clear
10:41 AM 71.6 °F - 37.4 °F 29% 30.07 in 10.0 mi NE 3.5 mph - N/A   Clear
11:01 AM 73.4 °F - 35.6 °F 25% 30.07 in 10.0 mi East 6.9 mph - N/A   Clear
11:21 AM 73.4 °F - 35.6 °F 25% 30.07 in 10.0 mi East 5.8 mph - N/A   Clear
11:41 AM 73.4 °F - 37.4 °F 27% 30.07 in 10.0 mi East 5.8 mph - N/A   Clear
12:01 PM 73.4 °F - 35.6 °F 25% 30.06 in 10.0 mi East 8.1 mph - N/A   Clear
12:21 PM 73.4 °F - 35.6 °F 25% 30.05 in 10.0 mi SE 10.4 mph - N/A   Clear
12:41 PM 75.2 °F - 35.6 °F 24% 30.04 in 10.0 mi SSE 4.6 mph - N/A   Clear
1:01 PM 75.2 °F - 35.6 °F 24% 30.04 in 10.0 mi ESE 5.8 mph - N/A   Clear
1:24 PM 77.0 °F - 33.8 °F 21% 30.03 in 10.0 mi SSE 6.9 mph - N/A   Clear
1:41 PM 78.8 °F - 30.2 °F 17% 30.02 in 10.0 mi East 4.6 mph - N/A   Clear
2:01 PM 78.8 °F - 33.8 °F 20% 30.02 in 10.0 mi WSW 4.6 mph - N/A   Clear
2:21 PM 78.8 °F - 33.8 °F 20% 30.01 in 10.0 mi SSW 6.9 mph - N/A   Clear
2:41 PM 78.8 °F - 35.6 °F 21% 30.01 in 10.0 mi SSW 10.4 mph - N/A   Clear
3:01 PM 78.8 °F - 35.6 °F 21% 30.00 in 10.0 mi SW 5.8 mph - N/A   Clear
3:21 PM 80.6 °F - 33.8 °F 18% 29.99 in 10.0 mi SSE 6.9 mph - N/A   Clear
3:41 PM 80.6 °F - 33.8 °F 18% 29.98 in 10.0 mi South 9.2 mph - N/A   Clear
4:01 PM 80.6 °F - 35.6 °F 20% 29.98 in 10.0 mi South 6.9 mph - N/A   Clear
4:21 PM 80.6 °F - 33.8 °F 18% 29.97 in 10.0 mi SSE 5.8 mph - N/A   Clear
4:41 PM 80.6 °F - 35.6 °F 20% 29.97 in 10.0 mi SE 6.9 mph - N/A   Clear
5:01 PM 80.6 °F - 33.8 °F 18% 29.96 in 10.0 mi South 9.2 mph - N/A   Clear
5:21 PM 80.6 °F - 32.0 °F 17% 29.95 in 10.0 mi South 5.8 mph - N/A   Clear
5:41 PM 80.6 °F - 33.8 °F 18% 29.94 in 10.0 mi SE 8.1 mph - N/A   Clear
6:01 PM 80.6 °F - 33.8 °F 18% 29.94 in 10.0 mi South 6.9 mph - N/A   Clear
6:21 PM 78.8 °F - 35.6 °F 21% 29.94 in 10.0 mi SE 6.9 mph - N/A   Clear
6:41 PM 78.8 °F - 37.4 °F 23% 29.93 in 10.0 mi SE 4.6 mph - N/A   Clear
7:01 PM 78.8 °F - 39.2 °F 24% 29.94 in 10.0 mi SSE 4.6 mph - N/A   Clear
7:21 PM 75.2 °F - 42.8 °F 31% 29.94 in 10.0 mi South 4.6 mph - N/A   Clear
7:41 PM 73.4 °F - 39.2 °F 29% 29.93 in 10.0 mi SSE 4.6 mph - N/A   Clear
8:01 PM 69.8 °F - 39.2 °F 33% 29.93 in 10.0 mi SE 3.5 mph - N/A   Clear
8:21 PM 68.0 °F - 39.2 °F 35% 29.93 in 10.0 mi SE 5.8 mph - N/A   Clear
8:41 PM 66.2 °F - 39.2 °F 37% 29.93 in 10.0 mi SE 5.8 mph - N/A   Clear
9:01 PM 66.2 °F - 39.2 °F 37% 29.93 in 10.0 mi ESE 5.8 mph - N/A   Clear
9:21 PM 64.4 °F - 39.2 °F 40% 29.94 in 10.0 mi ESE 5.8 mph - N/A   Clear
9:41 PM 64.4 °F - 39.2 °F 40% 29.94 in 10.0 mi ESE 5.8 mph - N/A   Clear
10:01 PM 64.4 °F - 37.4 °F 37% 29.95 in 10.0 mi ESE 5.8 mph - N/A   Clear
10:21 PM 64.4 °F - 39.2 °F 40% 29.95 in 10.0 mi ESE 6.9 mph - N/A   Clear
10:41 PM 64.4 °F - 37.4 °F 37% 29.95 in 10.0 mi SE 6.9 mph - N/A   Clear
11:01 PM 62.6 °F - 37.4 °F 39% 29.95 in 10.0 mi SE 6.9 mph - N/A   Clear
11:21 PM 62.6 °F - 39.2 °F 42% 29.94 in 10.0 mi SE 9.2 mph - N/A   Clear
11:41 PM 62.6 °F - 39.2 °F 42% 29.94 in 10.0 mi SE 9.2 mph - N/A   Clear